Hourly Data Report for June 23, 2018

TORONTO CITY
ONTARIO
Current Station Operator: ECCC - MSC

43°40'00.000" N
79°24'00.000" W
112.50 m
6158355
71508
XTO

Download Data

Hourly Data (June 2018)
Hourly Data Report for June 23, 2018
TIME
LST
Temp Definition
°C
Dew Point Definition
°C
Rel Hum Definition
%
Precip. Amount Definition
mm

Wind Dir Definition
10's deg

Wind Spd Definition
km/h
Visibility Definition
km
Stn Press Definition
kPa
Hmdx Definition


Wind Chill Definition


Weather Definition


00:00 17.0 14.7 87 0.3 LegendMM LegendMM   99.74     LegendNANA
01:00 17.5 15.3 87 0.2 LegendMM LegendMM   99.69     LegendNANA
02:00 17.5 14.8 84 0.0 LegendMM LegendMM   99.65     LegendNANA
03:00 17.1 14.5 85 0.0 LegendMM LegendMM   99.59     LegendNANA
04:00 17.4 14.3 82 0.3 LegendMM LegendMM   99.55     LegendNANA
05:00 17.7 13.5 76 0.0 LegendMM LegendMM   99.51     LegendNANA
06:00 17.7 13.3 75 0.0 LegendMM LegendMM   99.52     LegendNANA
07:00 17.7 13.4 76 0.0 LegendMM LegendMM   99.50     LegendNANA
08:00 17.3 13.6 79 0.0 LegendMM LegendMM   99.51     LegendNANA
09:00 16.2 14.1 88 1.4 LegendMM LegendMM   99.49     LegendNANA
10:00 16.5 14.7 89 1.7 LegendMM LegendMM   99.46     LegendNANA
11:00 16.7 14.7 88 0.3 LegendMM LegendMM   99.45     LegendNANA
12:00 17.0 14.9 88 0.0 LegendMM LegendMM   99.40     LegendNANA
13:00 17.2 14.9 86 0.0 LegendMM LegendMM   99.37     LegendNANA
14:00 17.7 14.9 84 0.0 LegendMM LegendMM   99.38     LegendNANA
15:00 17.6 15.1 85 2.3 LegendMM LegendMM   99.36     LegendNANA
16:00 18.5 15.6 83 0.7 LegendMM LegendMM   99.34     LegendNANA
17:00 17.7 15.1 85 0.0 LegendMM LegendMM   99.33     LegendNANA
18:00 18.1 15.1 82 0.0 LegendMM LegendMM   99.35     LegendNANA
19:00 17.5 15.0 85 0.0 LegendMM LegendMM   99.38     LegendNANA
20:00 17.3 14.5 83 0.0 LegendMM LegendMM   99.41     LegendNANA
21:00 17.3 14.1 81 0.0 LegendMM LegendMM   99.47     LegendNANA
22:00 17.5 14.2 81 0.0 LegendMM LegendMM   99.49     LegendNANA
23:00 17.6 14.3 81 0.0 LegendMM LegendMM   99.49     LegendNANA

Notes on Data Quality.

Legend

  • E = Estimated
  • M = Missing
  • NA = Not Available*
  • [empty] = Indicates an unobserved value
Date modified: